Mountain View, CA

4:13 AM PST on December 11, 2016 (GMT -0800)
Moffett Federal Air Field

Weather History for KNUQ - March, 2007

Change the Weather History Date:

Monday, March 26, 2007

  Actual Average Record
Temperature  
Mean Temperature 56 °F 57 °F  
Max Temperature 66 °F 66 °F 84 °F (2015)
Min Temperature 48 °F 48 °F 35 °F (1948)
Degree Days  
Heating Degree Days 9    
Month to date heating degree days  
Since 1 July heating degree days  
Cooling Degree Days 0    
Month to date cooling degree days  
Year to date cooling degree days  
Growing Degree Days 6 (Base 50)    
Moisture  
Dew Point 48 °F    
Average Humidity 77    
Maximum Humidity 88    
Minimum Humidity 56    
Precipitation  
Precipitation 0.07 in 0.06 in 0.62 in (1991)
Month to date precipitation 1.98  
Year to date precipitation 7.80  
Sea Level Pressure  
Sea Level Pressure 30.08 in    
Wind  
Wind Speed 3 mph (West)    
Max Wind Speed 18 mph    
Max Gust Speed 26 mph    
Visibility 10 miles    
Events Rain    
T = Trace of Precipitation, MM = Missing Value Source: NWS Daily Summary

Daily Weather History Graph

Daily Weather History Graph

Search for Another Location

Airport or City:

Trip Planner

Search our weather history database for the weather conditions in past years. The results will help you decide how hot, cold, wet, or windy it might be!

Date:

Astronomy

Mar. 26, 2007 Rise Set
Actual Time 7:02 AM PDT 7:25 PM PDT
Civil Twilight 6:36 AM PDT 7:51 PM PDT
Nautical Twilight 6:06 AM PDT 8:22 PM PDT
Astronomical Twilight 5:35 AM PDT 8:53 PM PDT
Moon 12:46 PM PDT (3/26) 3:28 AM PDT (3/26)
Length of Visible Light 13h 14m
Length of Day
12h 22m
First Quarter, 61% of the Moon is Illuminated
Mar 26
First Quarter
Apr 2
Full
Apr 10
Last Quarter
Apr 17
New
Apr 23
First Quarter

Hourly Weather History & Observations

Time (PDT) Temp. Dew Point Humidity Pressure Visibility Wind Dir Wind Speed Gust Speed Precip Events Conditions
12:26 AM 55.4 °F 50.0 °F 82% 30.15 in 10.0 mi Calm Calm - N/A   Overcast
12:56 AM 55.0 °F 50.0 °F 83% 30.16 in 10.0 mi NNW 4.6 mph - N/A   Overcast
1:56 AM 55.0 °F 50.0 °F 83% 30.15 in 10.0 mi Calm Calm - N/A   Overcast
2:56 AM 55.9 °F 50.0 °F 80% 30.13 in 10.0 mi Calm Calm - N/A   Overcast
3:56 AM 55.0 °F 50.0 °F 83% 30.11 in 10.0 mi Calm Calm - N/A   Overcast
4:30 AM 53.6 °F 48.2 °F 82% 30.09 in 10.0 mi Calm Calm - N/A   Scattered Clouds
4:56 AM 53.1 °F 48.9 °F 86% 30.09 in 10.0 mi ESE 5.8 mph - N/A   Mostly Cloudy
5:04 AM 53.6 °F 50.0 °F 88% 30.09 in 10.0 mi Calm Calm - N/A   Mostly Cloudy
5:21 AM 55.4 °F 51.8 °F 88% 30.08 in 10.0 mi Calm Calm - N/A   Overcast
5:56 AM 55.0 °F 50.0 °F 83% 30.10 in 10.0 mi Calm Calm - N/A   Mostly Cloudy
6:40 AM 53.6 °F 48.2 °F 82% 30.09 in 10.0 mi SE 3.5 mph - N/A   Scattered Clouds
6:56 AM 55.0 °F 48.9 °F 80% 30.10 in 10.0 mi SE 4.6 mph - N/A   Clear
7:56 AM 54.0 °F 50.0 °F 86% 30.08 in 10.0 mi SSE 3.5 mph - N/A   Partly Cloudy
8:56 AM 57.0 °F 50.0 °F 77% 30.09 in 10.0 mi SW 3.5 mph - N/A   Partly Cloudy
9:08 AM 57.2 °F 48.2 °F 72% 30.09 in 10.0 mi Variable 5.8 mph - N/A   Mostly Cloudy
9:21 AM 57.2 °F 50.0 °F 77% 30.10 in 10.0 mi Calm Calm - N/A   Mostly Cloudy
9:56 AM 60.1 °F 50.0 °F 69% 30.09 in 10.0 mi Calm Calm - N/A   Partly Cloudy
10:56 AM 64.0 °F 51.1 °F 63% 30.08 in 10.0 mi SE 8.1 mph - N/A   Clear
11:56 AM 64.9 °F 50.0 °F 58% 30.05 in 10.0 mi Calm Calm - N/A   Mostly Cloudy
12:56 PM 64.9 °F 48.9 °F 56% 30.04 in 10.0 mi SW 12.7 mph 20.7 mph N/A   Mostly Cloudy
1:56 PM 63.0 °F 50.0 °F 63% 30.03 in 10.0 mi West 12.7 mph 18.4 mph N/A   Overcast
2:44 PM 57.2 °F 50.0 °F 77% 30.03 in 9.0 mi WNW 18.4 mph 26.5 mph 0.00 in Rain Light Rain
2:56 PM 54.0 °F 48.0 °F 80% 30.04 in 5.0 mi WNW 13.8 mph 20.7 mph 0.01 in Rain Light Rain
3:09 PM 53.6 °F 48.2 °F 82% 30.04 in 10.0 mi WNW 12.7 mph 19.6 mph 0.00 in Rain Light Rain
3:56 PM 54.0 °F 48.0 °F 80% 30.04 in 10.0 mi West 8.1 mph - 0.01 in Rain Light Rain
4:51 PM 53.6 °F 46.4 °F 77% 30.04 in 10.0 mi NW 9.2 mph - 0.03 in Rain Light Rain
4:56 PM 52.0 °F 46.9 °F 83% 30.04 in 10.0 mi NW 8.1 mph - 0.03 in Rain Light Rain
5:56 PM 52.0 °F 46.0 °F 80% 30.06 in 10.0 mi Variable 5.8 mph - 0.02 in Rain Light Rain
6:56 PM 53.1 °F 43.0 °F 69% 30.07 in 10.0 mi Calm Calm - 0.00 in   Mostly Cloudy
7:56 PM 52.0 °F 43.0 °F 71% 30.07 in 10.0 mi Calm Calm - N/A   Scattered Clouds
8:56 PM 48.9 °F 42.1 °F 77% 30.08 in 10.0 mi Calm Calm - 0.00 in   Clear
9:56 PM 50.0 °F 41.0 °F 71% 30.09 in 10.0 mi WNW 6.9 mph - N/A   Partly Cloudy
10:56 PM 50.0 °F 42.1 °F 74% 30.10 in 10.0 mi WNW 5.8 mph - N/A   Overcast
11:56 PM 50.0 °F 42.1 °F 74% 30.09 in 10.0 mi West 6.9 mph - 0.00 in Rain Light Rain